FW6082 Weather Reports


time (UTC)temp
C
wind
direction
speed
KPH
gust
KPH
rain 1hr
cm
rain 24hr
cm
rain mn
cm
humidity
%
barometer
mb
20260905223016 21 310 0.0 9.7 0.00 0.00 0.00 17 1009.8
20260905221507 21 276 3.2 9.7 0.00 0.00 0.00 18 1009.7
20260905220008 21 262 3.2 11.3 0.00 0.00 0.00 18 1009.9
20260905214511 21 246 4.8 14.5 0.00 0.00 0.00 18 1009.7
20260905213006 22 293 4.8 11.3 0.00 0.00 0.00 19 1009.4
20260905211505 22 211 6.4 14.5 0.00 0.00 0.00 18 1009.6
20260905210005 22 238 4.8 14.5 0.00 0.00 0.00 16 1009.2
20260905204505 23 217 3.2 11.3 0.00 0.00 0.00 16 1009.2
20260905203004 23 234 1.6 9.7 0.00 0.00 0.00 16 1009.2
20260905201503 23 207 6.4 16.1 0.00 0.00 0.00 15 1009.1
20260905200002 23 256 3.2 17.7 0.00 0.00 0.00 15 1009.0
20260905194502 24 243 8.0 16.1 0.00 0.00 0.00 15 1009.1
20260905193004 25 269 3.2 14.5 0.00 0.00 0.00 18 1009.1
20260905191559 25 201 8.0 19.3 0.00 0.00 0.00 16 1009.2
20260905190058 25 226 4.8 19.3 0.00 0.00 0.00 16 1009.2
20260905184607 25 249 6.4 16.1 0.00 0.00 0.00 16 1009.1
20260905183057 25 240 8.0 17.7 0.00 0.00 0.00 15 1009.2
20260905181556 26 241 6.4 17.7 0.00 0.00 0.00 16 1009.2
20260905180054 25 243 4.8 16.1 0.00 0.00 0.00 17 1009.4
20260905174553 25 241 6.4 16.1 0.00 0.00 0.00 16 1009.4
20260905173053 25 242 4.8 14.5 0.00 0.00 0.00 16 1009.5
20260905171550 25 240 4.8 17.7 0.00 0.00 0.00 16 1009.7
20260905170049 25 305 8.0 14.5 0.00 0.00 0.00 14 1010.0
20260905164548 25 231 6.4 17.7 0.00 0.00 0.00 13 1010.2
20260905163044 25 243 3.2 12.9 0.00 0.00 0.00 12 1010.4
20260905161540 25 278 1.6 12.9 0.00 0.00 0.00 13 1010.5
20260905160037 26 248 0.0 6.4 0.00 0.00 0.00 13 1010.8
20260905154534 26 240 0.0 3.2 0.00 0.00 0.00 12 1011.0
20260905153035 25 128 0.0 1.6 0.00 0.00 0.00 12 1011.2
20260905151525 25 126 0.0 1.6 0.00 0.00 0.00 13 1011.6
20260905150024 23 128 0.0 4.8 0.00 0.00 0.00 18 1011.9
20260905144518 23 135 1.6 8.0 0.00 0.00 0.00 13 1012.2
20260905143022 22 116 0.0 4.8 0.00 0.00 0.00 14 1012.2
20260905141512 22 106 0.0 3.2 0.00 0.00 0.00 16 1012.4
20260905140005 21 91 0.0 4.8 0.00 0.00 0.00 15 1012.7
20260905134601 20 131 0.0 3.2 0.00 0.00 0.00 24 1012.8
20260905133056 18 131 0.0 3.2 0.00 0.00 0.00 23 1013.0
20260905131601 16 132 0.0 1.6 0.00 0.00 0.00 29 1013.1
20260905130047 13 5 0.0 0.0 0.00 0.00 0.00 36 1013.1
20260905124544 11 5 0.0 1.6 0.00 0.00 0.00 41 1013.1
20260905123102 8 5 0.0 0.0 0.00 0.00 0.00 44 1013.1
20260905121541 8 5 0.0 0.0 0.00 0.00 0.00 55 1013.1
20260905120041 7 5 0.0 0.0 0.00 0.00 0.00 47 1013.1
20260905114542 7 5 0.0 0.0 0.00 0.00 0.00 50 1013.0
20260905113035 7 5 0.0 0.0 0.00 0.00 0.00 48 1013.0
20260905111536 7 5 0.0 0.0 0.00 0.00 0.00 48 1013.0
20260905110034 7 5 0.0 0.0 0.00 0.00 0.00 43 1012.9
20260905104529 7 5 0.0 0.0 0.00 0.00 0.00 47 1012.7
20260905103038 7 5 0.0 0.0 0.00 0.00 0.00 46 1012.7
20260905101525 7 5 0.0 0.0 0.00 0.00 0.00 44 1012.6
20260905100030 7 5 0.0 0.0 0.00 0.00 0.00 48 1012.5
20260905094524 8 5 0.0 0.0 0.00 0.00 0.00 46 1012.4
20260905093022 8 5 0.0 0.0 0.00 0.00 0.00 45 1012.5
20260905091519 10 5 0.0 0.0 0.00 0.00 0.00 41 1012.4
20260905090019 10 5 0.0 0.0 0.00 0.00 0.00 39 1012.4
20260905084517 10 5 0.0 1.6 0.00 0.00 0.00 36 1012.4
20260905083018 10 5 0.0 0.0 0.00 0.00 0.00 38 1012.4
20260905081519 10 5 0.0 3.2 0.00 0.00 0.00 38 1012.5
20260905080026 8 5 0.0 0.0 0.00 0.00 0.00 43 1012.5
20260905074514 8 5 0.0 0.0 0.00 0.00 0.00 45 1012.6
20260905073020 9 5 0.0 0.0 0.00 0.00 0.00 44 1012.8
20260905071510 8 5 0.0 1.6 0.00 0.00 0.00 42 1012.9
20260905070008 9 5 0.0 0.0 0.00 0.00 0.00 47 1012.8
20260905064504 10 5 0.0 0.0 0.00 0.00 0.00 43 1012.9
20260905063003 10 5 0.0 1.6 0.00 0.00 0.00 45 1012.9
20260905061603 10 5 0.0 0.0 0.00 0.00 0.00 44 1013.1
20260905060107 10 5 0.0 0.0 0.00 0.00 0.00 40 1013.1
20260905054609 10 5 0.0 0.0 0.00 0.00 0.00 44 1013.3
20260905053109 10 5 0.0 0.0 0.00 0.00 0.00 46 1013.3
20260905051557 10 5 0.0 0.0 0.00 0.00 0.00 44 1013.4
20260905050054 11 5 0.0 0.0 0.00 0.00 0.00 41 1013.5
20260905044602 11 5 0.0 0.0 0.00 0.00 0.00 38 1013.3
20260905043106 10 5 0.0 0.0 0.00 0.00 0.00 42 1013.4
20260905041547 11 5 0.0 0.0 0.00 0.00 0.00 44 1013.6
20260905040049 11 5 0.0 0.0 0.00 0.00 0.00 41 1013.6
20260905034543 11 5 0.0 0.0 0.00 0.00 0.00 44 1013.7
20260905033041 11 5 0.0 1.6 0.00 0.00 0.00 42 1013.9
20260905031543 10 5 0.0 0.0 0.00 0.00 0.00 51 1013.9
20260905030047 10 5 0.0 0.0 0.00 0.00 0.00 46 1013.9
20260905024540 11 5 0.0 0.0 0.00 0.00 0.00 47 1014.0
20260905023040 11 5 0.0 0.0 0.00 0.00 0.00 47 1013.9
20260905021545 12 5 0.0 0.0 0.00 0.00 0.00 43 1014.0
20260905020048 13 5 0.0 0.0 0.00 0.00 0.00 43 1014.1
20260905014538 12 5 0.0 0.0 0.00 0.00 0.00 43 1014.0
20260905013037 12 5 0.0 0.0 0.00 0.00 0.00 45 1014.0
20260905011553 13 5 0.0 0.0 0.00 0.00 0.00 43 1013.9
20260905010039 15 5 0.0 0.0 0.00 0.00 0.00 40 1014.0
20260905004536 15 5 0.0 0.0 0.00 0.00 0.00 37 1013.9
20260905003045 16 22 0.0 0.0 0.00 0.00 0.00 36 1013.8
20260905001537 17 22 0.0 1.6 0.00 0.00 0.00 34 1013.8
20260905000038 18 22 0.0 0.0 0.00 0.00 0.00 33 1013.5
20260904234535 18 355 0.0 6.4 0.00 0.00 0.00 31 1013.4
20260904233049 18 330 3.2 9.7 0.00 0.00 0.00 30 1013.0
20260904231631 19 334 4.8 11.3 0.00 0.00 0.00 28 1012.8
20260904230039 19 278 0.0 6.4 0.00 0.00 0.00 28 1012.7
20260904224530 20 170 0.0 11.3 0.00 0.00 0.00 22 1012.7